Location: Deurze
(52.9838°N, 6.6090°E)
Time: 18:53:37
(UTC+00:00)

CARTOSAT-1 - Pass Details

Date: 11 March 2026
Orbit: 595 x 596 km, 97.5° (Epoch: 20 April)

Event Time Altitude Azimuth Distance (km) Brightness Sun altitude
Rises 18:26:12 0° 177° (S) 2,828 6.8 -9.2°
Reaches altitude 10° 18:28:23 10° 182° (S) 1,931 6.1 -9.5°
Maximum altitude 18:32:30 54° 260° (W) 732 4.4 -10.1°
Drops below altitude 10° 18:36:39 10° 338° (NNW) 1,947 6.5 -10.8°
Sets 18:38:53 0° 343° (NNW) 2,854 7.3 -11.1°
